Location: Poughquag
(41.6090°N, 73.6820°W)
Time: 03:37:04
(UTC-04:00)

Vanguard 1 Rocket - Pass Details

Date: 06 June 2020
Orbit: 653 x 4224 km, 34.3° (Epoch: 06 July)

Event Time Altitude Azimuth Distance (km) Brightness Sun altitude
Rises 20:46:22 0° 205° (SSW) 8,111 12.1 -3.9°
Reaches altitude 10° 20:52:48 10° 197° (SSW) 7,311 11.8 -4.9°
Maximum altitude 21:14:00 34° 143° (SE) 5,377 10.8 -8.0°
Drops below altitude 10° 21:31:02 10° 88° (E) 6,000 11.1 -10.4°
Sets 21:35:28 0° 80° (E) 6,578 11.4 -11.0°
